SCP
0 0 0 0 0 0 0 0 0 0 0 0 0 0 0 1 1 1 1 1 1 2 2 2 2 2 2 2 2 2 2 2 2 2 2 1 1 1 1 1 0 0 0 0 0 1 1 1 1
0 0 0 0 0 0 0 0 0 0 0 0 0 0 0 1 1 1 1 1 2 2 2 2 2 3 2 2 2 2 2 2 2 2 2 2 1 1 1 1 1 1 1 1 1 1 1 1 0
0 0 0 0 0 0 0 0 0 0 0 0 0 0 0 1 1 1 1 2 2 2 2 2 3 3 3 2 2 2 2 2 2 2 2 2 1 1 1 1 1 1 1 1 1 1 1 1 0
0 0 0 0 0 0 0 0 0 0 0 0 0 0 1 1 1 1 2 2 2 2 2 2 3 3 3 2 2 2 2 3 2 2 2 2 1 1 1 1 1 1 1 1 1 1 1 1 1
0 0 0 0 0 0 0 0 0 0 0 0 0 1 1 1 1 2 3 3 2 2 2 2 3 3 3 2 2 2 3 3 3 2 2 2 1 1 1 1 1 1 1 1 1 1 1 1 1
0 0 0 0 0 0 0 0 0 0 0 0 0 1 1 1 2 2 3 3 2 2 2 3 3 3 3 3 3 3 3 3 3 2 2 2 2 2 1 1 1 1 1 1 1 1 1 1 0
0 0 0 0 0 0 0 0 0 0 0 1 1 1 2 2 2 2 3 3 2 2 3 3 3 3 4 3 3 3 3 3 3 3 2 2 2 2 2 2 1 1 1 1 1 1 1 1 0
0 0 0 0 0 0 0 0 0 0 1 1 2 2 2 2 3 3 3 3 2 2 3 3 4 4 4 4 3 3 3 3 3 3 2 2 2 2 2 2 2 1 1 1 1 1 1 1 0
0 0 0 0 0 0 0 0 0 1 1 1 2 2 2 2 3 3 3 3 3 2 3 3 3 3 3 3 3 3 2 2 3 3 2 2 2 2 2 1 2 1 1 1 1 1 1 1 0
0 0 0 0 0 0 0 0 0 0 1 1 2 3 2 2 3 3 3 3 3 3 3 3 3 3 3 4 4 3 3 3 3 2 2 2 2 2 1 1 2 2 1 1 1 1 1 1 0
0 0 0 0 0 0 0 0 0 1 1 2 2 3 3 4 3 3 3 3 3 4 3 3 3 4 4 5 5 4 4 4 4 3 2 2 2 2 2 2 2 2 1 1 1 1 1 0 0
0 0 0 0 0 0 0 0 1 1 1 2 3 4 5 5 4 4 3 3 4 4 3 3 3 4 4 5 5 5 5 5 4 3 3 3 2 2 2 2 2 2 2 1 1 1 1 1 1
0 0 0 0 0 0 0 0 1 1 2 2 3 4 5 5 5 5 4 4 4 4 4 3 4 4 5 6 6 5 5 5 4 4 3 3 2 2 2 2 2 2 2 1 1 1 1 1 1
0 0 0 0 0 0 0 0 1 1 1 2 3 4 4 5 5 5 4 4 4 4 4 4 4 5 6 7 7 6 5 5 4 4 3 3 2 2 2 2 2 2 2 2 2 2 1 1 1
0 0 0 0 0 0 0 0 1 1 1 2 2 3 5 6 6 6 5 5 4 4 4 4 4 5 6 7 7 6 5 4 4 3 3 3 2 2 2 2 2 2 2 2 2 2 2 2 1
0 0 0 0 0 0 0 1 1 1 1 2 2 3 4 6 8 8 7 6 5 5 5 5 4 4 5 5 5 5 5 4 4 3 3 3 3 3 3 3 2 2 2 2 2 2 2 2 2
0 0 0 0 0 0 0 1 1 1 1 2 2 3 3 5 6 7 7 6 6 6 6 6 5 4 4 4 4 4 4 4 4 4 4 4 3 3 3 3 2 2 2 2 2 2 2 2 2
0 0 0 0 0 0 1 1 1 1 1 2 2 3 3 3 4 5 5 5 6 7 7 7 6 5 5 4 4 4 4 4 4 4 4 3 3 3 3 3 3 3 3 3 3 2 2 2 2
0 0 0 0 0 0 1 1 1 1 1 1 2 2 2 3 3 3 4 5 5 6 6 6 6 6 5 5 4 4 4 4 4 4 3 3 2 2 3 3 3 3 4 4 3 3 2 2 2
0 0 0 0 0 1 1 1 1 1 1 1 2 2 2 2 3 3 4 5 6 6 6 5 5 6 6 5 5 5 5 5 4 4 3 3 2 2 3 3 3 3 4 4 4 3 2 2 2
0 0 0 0 0 0 1 1 1 1 1 1 2 2 3 2 3 4 5 6 6 5 5 5 5 5 5 6 6 6 6 5 4 3 3 2 2 2 2 3 3 3 3 4 3 2 2 1 1
0 0 0 0 0 0 0 1 1 1 1 1 2 3 3 2 3 5 6 6 5 4 4 4 4 4 5 6 7 7 6 5 4 3 2 1 1 1 2 2 2 2 2 2 2 2 1 1 1
0 0 0 0 0 0 0 0 1 1 1 2 2 2 2 2 3 5 6 6 5 4 4 4 4 4 6 7 7 6 5 4 3 1 1 0 0 1 1 2 2 1 2 2 1 1 1 1 1
0 0 0 0 0 0 0 0 1 1 1 1 1 2 2 2 3 3 4 4 4 4 4 4 4 5 6 6 6 5 4 2 1 0 0 0 0 0 1 1 1 1 1 1 1 1 1 0 0
0 0 0 0 0 0 0 0 1 1 1 1 1 1 1 2 2 2 2 2 2 3 3 3 4 4 5 5 5 4 3 1 0 0 0 0 0 0 0 0 0 0 0 0 0 0 0 0 0
0 0 0 0 0 0 0 1 1 1 1 1 1 1 1 1 1 0 0 1 1 2 2 3 3 4 4 4 3 2 1 1 0 0 0 0 0 0 0 0 0 0 0 0 0 0 0 0 0
0 0 0 0 0 0 0 1 1 1 1 1 1 1 1 0 0 0 0 0 0 1 2 2 2 3 3 2 2 1 0 0 0 0 0 0 0 0 0 0 0 0 0 0 0 0 0 0 0
0 0 0 0 0 0 0 1 1 1 1 1 1 1 0 0 0 0 0 0 0 0 1 1 1 2 2 1 1 0 0 0 0 0 0 0 0 0 0 0 0 0 0 0 0 0 0 0 0
0 0 0 0 0 0 0 1 1 1 1 1 1 1 1 0 0 0 0 0 0 0 0 0 0 0 1 0 0 0 0 0 0 0 0 0 0 0 0 0 0 0 0 0 0 0 0 0 0
0 0 0 0 0 0 0 1 1 1 1 1 1 1 1 0 0 0 0 0 0 0 0 0 0 0 0 0 0 0 0 0 0 0 0 0 0 0 0 0 0 0 0 0 0 0 0 0 0
Wind_Speed
9 6 6 6 9 9 10 4 2 2 0 2 2 3 4 5 5 4 5 8 11 16 18 18 14 14 14 14 15 16 16 16 16 15 15 14 13 12 11 11 10 10 10 10 10 10 11 11 11
5 5 7 7 10 11 9 5 4 2 3 1 1 3 4 3 2 3 6 10 15 17 17 18 17 15 15 15 15 16 17 17 16 16 15 15 14 12 12 11 11 10 10 10 10 10 10 10 10
5 7 8 8 13 13 8 3 2 1 1 3 2 2 3 2 2 3 7 13 16 16 16 18 18 16 16 16 16 16 17 17 16 16 15 14 13 12 12 11 11 10 10 10 10 10 9 9 9
6 7 7 11 16 14 10 4 3 4 4 4 4 3 2 2 1 4 11 15 18 17 17 19 18 17 17 17 17 17 17 17 16 15 15 14 13 12 11 11 11 10 10 10 9 9 9 8 8
7 7 11 14 17 12 8 8 7 8 6 5 5 5 3 4 4 8 13 16 17 18 17 20 17 16 17 17 17 16 16 15 15 14 14 13 12 11 11 11 11 10 10 9 9 8 8 7 7
7 7 11 14 14 11 9 8 10 11 9 7 7 7 2 5 6 9 13 15 16 17 18 19 18 18 17 16 15 15 14 14 13 13 13 12 11 11 11 11 10 9 9 9 9 8 7 7 6
9 9 12 12 10 9 7 7 10 10 10 8 6 6 3 6 6 9 12 14 15 17 17 18 18 17 17 14 14 13 13 13 13 13 12 12 11 11 11 10 10 9 9 9 8 7 7 6 5
7 7 11 10 10 8 3 6 7 9 8 3 4 6 3 7 8 10 11 13 14 15 16 16 17 17 17 16 15 14 13 13 13 14 14 13 12 11 11 11 10 9 9 8 8 7 6 5 5
7 9 9 7 6 4 2 6 5 5 7 6 5 4 3 8 11 12 12 13 14 14 15 15 16 16 15 15 15 15 15 13 14 14 13 13 12 12 11 10 11 9 9 8 7 7 6 6 7
8 9 6 2 4 5 4 6 5 6 9 8 6 3 4 8 12 13 13 14 15 15 15 14 15 15 15 12 12 11 12 12 12 11 12 10 7 6 7 12 9 9 8 8 7 7 8 10 8
7 6 2 4 5 6 7 6 5 8 9 6 5 4 5 8 10 11 12 12 13 14 13 14 13 12 12 9 9 7 7 8 10 11 11 7 6 6 6 7 9 9 10 9 10 10 8 7 3
6 5 5 5 4 7 8 7 6 6 7 7 6 4 5 8 9 10 10 10 10 12 12 13 13 11 10 8 7 7 6 7 7 9 10 8 5 5 5 5 6 6 6 5 5 5 5 4 4
8 5 6 7 8 8 8 9 7 6 5 6 4 3 4 6 7 7 7 7 9 10 11 11 11 11 9 8 7 7 6 7 7 7 8 7 6 6 6 4 3 5 4 6 5 5 4 4 5
3 5 7 8 8 7 8 8 8 4 3 3 1 1 1 3 3 4 5 5 7 8 9 10 11 12 11 9 7 6 6 4 5 6 8 8 6 5 4 5 4 4 3 3 3 4 4 3 2
5 8 9 8 7 6 7 8 6 2 2 1 1 2 3 2 2 2 2 3 4 5 7 8 9 9 10 9 8 6 6 5 4 4 6 7 6 6 5 4 4 3 3 3 3 3 3 3 3
8 10 9 5 3 4 9 7 5 1 2 1 1 3 4 5 6 5 4 2 2 3 4 5 5 7 8 7 6 4 4 4 3 3 4 6 6 6 5 4 4 3 3 3 3 3 2 2 1
8 7 5 3 3 5 9 3 3 1 1 2 2 3 5 6 7 7 6 4 3 2 1 3 4 5 6 6 5 3 3 2 2 1 1 2 3 4 4 3 2 3 2 2 3 2 2 1 1
3 5 5 5 3 5 6 3 1 1 2 3 3 4 5 6 7 7 6 5 5 5 4 2 3 4 5 5 5 4 4 3 2 2 2 3 2 2 3 3 3 2 2 2 2 2 1 1 1
6 8 7 4 2 5 5 4 2 2 3 3 3 4 5 6 7 7 7 6 6 6 5 3 2 3 4 4 5 5 4 4 3 3 3 3 4 3 3 3 3 3 2 2 2 2 3 1 1
8 9 7 3 3 5 4 4 3 3 3 3 4 4 5 5 6 7 8 7 7 6 5 4 2 1 2 3 4 4 5 4 4 5 5 5 5 5 4 4 4 4 3 4 2 1 1 2 1
9 9 7 4 3 7 7 7 7 5 5 5 5 6 6 6 6 7 7 8 8 7 6 5 4 2 2 5 6 6 6 5 4 5 5 6 7 6 6 6 6 5 4 4 3 1 1 2 1
8 5 6 7 8 7 9 7 8 8 7 6 6 6 7 7 7 7 8 8 8 7 6 6 6 6 4 4 6 8 6 6 5 5 6 8 9 8 7 8 8 7 6 5 4 3 2 1 2
7 5 7 9 10 9 10 9 5 10 9 8 7 7 7 7 8 8 8 8 8 7 7 7 8 9 8 6 7 8 8 8 7 7 9 9 9 9 9 9 9 8 8 8 7 6 5 4 3
6 6 7 9 9 11 10 9 5 7 8 10 9 8 8 8 9 9 9 9 9 8 8 8 9 10 9 10 9 10 12 11 10 9 9 8 7 8 10 10 9 9 8 8 8 8 10 8 7
9 9 7 8 9 7 4 6 0 3 4 11 12 10 9 9 9 9 10 9 10 10 10 9 11 11 11 11 11 11 11 11 11 9 9 9 8 8 9 9 9 9 8 9 8 9 9 9 8
8 11 9 8 6 2 4 4 5 6 8 11 12 11 10 9 9 10 10 9 9 10 10 10 11 12 12 12 12 11 11 9 9 11 9 9 8 8 9 10 10 10 9 9 8 8 9 8 8
7 8 8 10 10 7 4 3 5 8 10 11 11 11 10 10 9 9 10 10 10 10 10 10 11 12 12 12 13 13 13 13 12 11 11 9 8 8 10 10 10 9 9 9 8 8 8 7 7
9 6 5 8 7 8 5 6 5 12 12 11 11 10 10 10 10 9 9 10 10 10 11 12 12 12 13 12 11 12 13 13 12 11 12 11 10 9 10 10 9 9 9 8 8 8 8 8 7
7 7 7 8 7 8 6 1 4 8 12 13 12 11 10 10 9 8 9 9 10 10 11 12 12 13 13 13 13 13 13 13 12 11 11 10 9 9 9 9 9 9 9 8 7 8 7 8 7
6 6 7 7 8 8 7 2 5 6 11 14 14 12 11 11 10 9 9 10 11 11 11 11 12 13 13 13 13 12 12 12 12 11 10 9 9 9 9 9 9 8 8 7 7 7 7 7 7
Wind_Direction
256 239 232 240 246 241 247 224 235 230 95 26 328 304 310 314 324 30 85 150 154 150 146 149 145 143 141 140 143 143 143 143 143 144 144 142 140 138 136 134 131 128 125 123 121 119 118 120 122
268 222 228 239 251 246 232 219 225 275 22 15 220 252 269 284 2 84 126 146 153 150 151 155 146 145 143 140 142 143 145 146 146 146 146 145 143 141 140 139 136 133 130 128 126 124 122 123 124
230 230 241 238 240 250 250 193 240 230 198 238 241 249 281 328 93 116 127 149 152 151 155 148 151 149 146 144 145 147 148 148 149 149 148 147 146 144 143 142 140 136 133 132 129 126 125 126 126
213 211 230 242 242 243 263 260 259 249 219 225 255 240 210 63 70 116 138 151 153 155 157 150 157 153 150 150 150 151 151 151 151 151 150 148 147 147 146 144 142 139 136 135 131 127 126 128 127
229 230 227 235 244 248 250 264 266 260 250 239 248 255 220 128 132 132 146 157 159 159 158 153 159 155 154 154 154 154 153 152 152 151 150 149 149 149 147 146 144 142 140 137 133 129 127 127 125
213 226 235 237 241 241 244 251 253 255 253 246 244 254 216 120 147 150 155 165 163 160 158 152 159 160 159 159 157 155 154 153 152 151 150 150 150 149 148 146 144 143 142 139 135 132 130 126 126
232 231 246 251 254 243 244 253 251 253 252 246 248 247 173 146 151 157 160 166 164 162 158 158 164 165 164 161 160 157 155 154 152 151 151 152 152 152 152 149 147 146 145 142 140 141 139 135 136
251 244 243 245 251 248 237 248 247 261 261 268 254 246 198 146 154 154 156 164 165 167 163 163 167 167 170 168 166 163 161 158 156 157 158 156 156 159 158 162 153 154 152 151 150 153 153 150 152
234 241 239 238 248 247 216 246 240 257 255 243 242 277 43 137 159 160 161 166 169 170 165 168 170 171 176 171 166 171 170 166 164 165 163 170 179 171 174 159 150 162 161 161 162 166 170 178 177
223 240 249 303 277 279 267 264 271 248 236 230 221 212 140 159 170 173 173 173 172 172 171 173 173 173 177 172 167 179 180 173 186 172 173 192 182 181 172 132 161 168 170 172 174 179 193 219 198
225 257 278 239 260 278 275 268 265 256 245 249 260 228 178 182 185 188 185 181 175 173 173 174 173 176 177 175 174 179 184 174 191 177 180 186 179 182 178 167 171 180 186 191 173 195 211 213 222
232 242 258 262 261 262 269 269 261 265 280 301 293 263 208 203 198 193 186 179 170 173 178 176 172 175 181 181 180 185 186 180 187 180 189 181 188 188 190 198 184 182 191 192 200 206 197 216 212
232 236 243 253 256 260 265 259 262 269 293 298 298 266 229 210 204 188 182 179 175 174 177 179 176 174 179 182 189 195 196 193 185 180 193 190 186 193 184 192 195 206 188 185 206 209 187 212 211
248 259 257 255 253 242 246 242 235 252 300 300 304 300 237 196 188 165 167 174 180 178 180 180 181 177 180 185 192 189 192 197 188 191 191 196 194 189 187 186 190 209 207 212 204 192 192 214 218
255 257 245 232 235 225 235 226 222 251 283 293 50 74 65 72 99 117 135 158 174 177 179 181 185 179 185 187 190 187 188 185 189 197 189 193 197 189 196 190 191 195 188 187 206 192 200 202 195
233 241 236 168 214 202 237 226 123 124 229 164 88 78 76 66 60 56 65 91 122 162 174 179 186 180 183 177 171 175 186 177 180 186 184 193 195 191 199 192 196 186 186 189 188 198 202 203 209
215 240 253 190 186 213 236 239 87 51 192 145 111 89 81 69 53 46 46 58 69 81 143 175 177 168 164 155 150 147 147 128 122 122 163 178 180 192 185 181 177 186 185 192 203 169 209 207 212
273 271 256 254 167 229 235 221 164 159 176 143 114 96 82 68 54 47 43 45 57 63 72 112 144 139 152 154 148 147 131 115 107 105 117 125 134 151 148 143 149 161 160 162 161 143 130 180 193
287 278 273 270 230 245 229 212 184 170 174 147 121 102 88 75 63 56 48 44 50 53 56 54 101 136 152 161 161 152 139 121 99 83 77 93 100 108 119 127 120 116 122 128 147 148 143 145 181
258 260 257 230 172 238 218 210 185 172 157 131 116 100 91 80 66 58 48 44 43 47 43 43 55 118 166 159 145 129 117 100 89 71 61 65 81 88 99 108 107 98 106 96 86 126 171 119 350
252 260 271 266 223 219 211 212 194 160 144 122 109 98 87 81 71 62 54 46 41 36 31 29 25 50 115 130 123 118 113 103 86 77 62 53 66 75 81 90 86 81 82 83 72 61 166 149 101
263 263 263 244 239 231 226 247 196 181 169 147 123 107 96 81 73 66 57 49 41 36 36 41 45 51 70 110 126 131 125 114 99 93 83 69 63 64 69 76 79 76 75 76 73 58 59 119 136
285 297 257 247 253 260 236 252 199 177 187 164 135 111 97 86 74 66 59 54 48 44 48 52 60 60 62 80 105 112 107 102 100 95 90 79 67 62 65 70 73 72 70 69 67 67 59 60 59
265 251 237 238 244 248 242 247 228 186 196 157 133 113 98 87 79 70 65 60 53 49 55 61 66 65 64 71 84 97 105 109 108 102 95 84 75 67 66 70 72 72 72 71 70 71 69 66 64
229 241 239 231 228 239 213 241 17 122 154 150 137 122 105 90 80 69 59 56 53 50 56 64 71 70 70 75 78 88 95 97 95 95 91 88 80 72 66 69 70 71 75 76 75 72 69 68 67
233 251 266 281 278 263 201 233 80 78 103 119 123 120 107 91 80 72 63 57 57 56 60 68 72 75 74 76 79 83 86 87 85 83 85 83 79 75 74 74 74 73 73 75 74 75 74 71 70
250 242 273 283 279 273 233 144 123 124 124 127 127 121 109 97 86 77 70 64 61 62 65 72 78 79 79 80 82 82 84 86 86 85 83 82 82 83 78 77 77 76 74 74 77 76 74 72 71
267 282 259 262 276 274 243 217 186 167 157 146 137 126 115 105 93 85 78 73 69 70 76 77 79 82 84 83 83 86 86 87 88 86 84 83 83 84 85 82 81 79 77 76 78 84 78 79 73
220 229 253 271 283 287 280 74 56 167 160 150 138 130 121 111 101 93 89 85 82 80 81 84 83 83 83 84 85 86 86 87 87 86 86 86 87 87 86 85 83 81 78 74 74 79 80 78 76
262 258 254 264 271 270 285 69 61 126 139 139 133 128 121 114 109 106 103 99 94 90 86 86 87 87 87 89 88 88 91 91 90 89 88 87 86 85 84 82 80 78 77 75 75 76 75 75 73